Location: Rochester
(43.1610°N, 77.6109°W)
Time: 19:35:46
(UTC-04:00)

Envisat - Pass Details

Date: 02 August 2021
Orbit: 764 x 766 km, 98.2° (Epoch: 17 September)

Event Time Altitude Azimuth Distance (km) Brightness Sun altitude
Rises 05:08:07 0° 32° (NNE) 3,241 7.7 -9.3°
Reaches altitude 10° 05:11:33 10° 56° (NE) 2,308 7.2 -8.8°
Maximum altitude 05:14:18 15° 89° (E) 2,003 6.1 -8.4°
Drops below altitude 10° 05:17:02 10° 122° (ESE) 2,298 5.8 -8.0°
Sets 05:20:25 0° 146° (SSE) 3,217 6.2 -7.5°
